Regional Weather Roundup
Issued by NWS Jackson, KY

Home | Current Version | Previous Version | Graphics & Text | Print | Product List | Glossary On
Versions: 1 2 3 4 5 6 7 8 9 10 11 12 13 14 15 16 17 18 19 20 21 22 23 24 25 26 27
000
ASUS43 KJKL 191010
RWRJKL

EAST KENTUCKY HOURLY WEATHER ROUNDUP
NATIONAL WEATHER SERVICE JACKSON KY
500 AM EST SUN FEB 19 2017

NOTE: "FAIR" INDICATES FEW OR NO CLOUDS BELOW 12,000 FEET WITH
NO SIGNIFICANT WEATHER AND/OR OBSTRUCTIONS TO VISIBILITY.

* THESE REPORTS ARE NOT UNDER NWS QUALITY CONTROL AND MAY NOT
  REPORT WEATHER SUCH AS PRECIPITATION AND FOG.

KYZ079-080-083-085-087-088-110-112-115-119-120-191100
...EASTERN KENTUCKY...

CITY           SKY/WX    TMP DP  RH WIND       PRES   REMARKS
JACKSON        CLOUDY    46  44  93 SW3       29.99S FOG
LONDON         CLOUDY    47  45  93 S3        30.00S FOG
SOMERSET*      CLOUDY    43  43 100 CALM      30.02R FOG
MONTICELLO*    CLOUDY    47  46  97 NE8       30.03R
WILLIAMSBURG*  CLOUDY    46  46 100 CALM      30.01R
MIDDLESBORO*   CLOUDY    46  46 100 CALM      30.01S FOG
HARLAN APT*    CLOUDY    46  45  93 CALM      30.01S
PIKE CO APT*   CLOUDY    47  47 100 CALM      29.99F
BIG SANDY APT* CLOUDY    48  46  91 CALM      29.99F
MOREHEAD APT*  CLOUDY    48  45  87 W7        30.01R
ASHLAND*       CLOUDY    46  45  93 CALM      29.97R
$$

KYZ035-036-041-042-044-050-067-078-099-191100
...CENTRAL KENTUCKY...

CITY           SKY/WX    TMP DP  RH WIND       PRES   REMARKS
MT STERLING*   CLOUDY    46  45  93 W5        30.01R
FLEMING/MASON* CLOUDY    46  46  98 SW6       30.00R FOG
DANVILLE*      CLOUDY    45  43  93 CALM      30.02R
LEXINGTON      CLOUDY    47  45  93 W7        29.99R FOG
FRANKFORT      CLOUDY    49  45  86 SW6       29.98R FOG
LOUISVILLE     CLOUDY    51  47  86 W8        30.00R
LEBANON*       PTSUNNY   46  45  93 S5        30.01R
GLASGOW*       CLOUDY   N/A N/A N/A CALM      30.01R FOG
BOWLING GREEN  CLOUDY    45  44  97 CALM      30.02R FOG
$$

KYZ091>093-OHZ055-061-077-WVZ005-015-034-035-042-191100
...SOUTHERN OHIO/WEST VIRGINIA...

CITY           SKY/WX    TMP DP  RH WIND       PRES   REMARKS
COVINGTON      PTCLDY    47  45  93 SW8       29.96R
COLUMBUS       PTCLDY    43  40  89 CALM      29.94R FOG
DAYTON         CLEAR     44  42  93 W8        29.95R
WILMINGTON     CLEAR     44  43  96 SW6       29.95R FOG
HUNTINGTON     CLOUDY    48  45  89 CALM      29.97S
CHARLESTON     CLOUDY    47  45  93 SW7       29.96F
PINEVILLE*     CLOUDY    47  42  82 MISG      30.03S
BECKLEY        CLOUDY    44  42  93 W8        29.96R FOG
BLUEFIELD      CLOUDY    43  38  82 W6        29.98R
LOGAN CO APT*  CLOUDY    46  45  93 W6        29.98S
$$

VAZ002-007-008-TNZ017-027-036-066-071-191100
...SOUTHWEST VIRGINIA/EAST TENNESSEE...

CITY           SKY/WX    TMP DP  RH WIND       PRES   REMARKS
WISE*          CLOUDY    45  45 100 CALM      30.00F
JONESVILLE*    CLOUDY    46  46 100 CALM      30.03S FOG
ABINGDON*      DRZL/FOG  47  47 100 W5        30.00R VSB 1/2
BRISTOL        CLOUDY    48  46  93 CALM      30.01S FOG
MORRISTOWN*    CLOUDY    50  48  93 W3        30.00S FOG
SEVIERVILLE*   CLOUDY    46  46 100 E3        30.00S
KNOXVILLE      CLOUDY    50  48  93 CALM      30.00R FOG
LAFOLLETTE*    FOG       48  48 100 CALM      30.03S VSB 1
OAK RIDGE      FOG       50  48  93 CALM      30.02R VSB 1/2
CROSSVILLE     CLOUDY    46  45  96 W5        30.01R
NASHVILLE      PTCLDY    49  46  90 CALM      30.02R
$$

...KEY TO REMARKS...
VSB - VISIBILITY IN MILES
WCI - WIND CHILL INDEX
HX  - HEAT INDEX

$$




USA.gov is the U.S. government's official web portal to all federal, state and local government web resources and services.